Left ArrowRight Arrow

47.50024, -111.30081

Hourly Observations for June 18, 2024

Temp ( °F °C ) Dew Point ( °F °C ) Humidity (%) Winds ( mph kmh ) Pressure ( in mb ) Visibility ( mi km ) Precip ( " mm )
12:41 am 00:41 Cloudy 43 6.1 41 5 93 93 WNW 8 13 29.88 1012 10 16 0.00 0.00
12:53 am 00:53 Cloudy 43 6.1 41 5 93 93 NW 8 13 29.91 1013 10 16 0.00 0.00
1:53 am 01:53 Cloudy 43 6.1 40 4.4 89 89 W 6 9 29.91 1013 10 16 0.00 0.00
2:53 am 02:53 Cloudy 43 6.1 41 5 93 93 W 9 15 29.91 1013 10 16 0.00 0.00
3:53 am 03:53 Cloudy 43 6.1 41 5 93 93 W 8 13 29.94 1014 10 16 0.01 0.13
4:07 am 04:07 Cloudy 43 6.1 41 5 93 93 W 6 9 29.91 1013 10 16 0.00 0.00
4:16 am 04:16 Cloudy 43 6.1 41 5 93 93 WNW 7 11 29.92 1013 10 16 0.00 0.00
4:53 am 04:53 Cloudy with Light Rain 43 6.1 40 4.4 89 89 NW 7 11 29.96 1015 10 16 0.01 0.25
5:53 am 05:53 Cloudy 43 6.1 41 5 93 93 W 3 6 29.97 1015 10 16 0.01 0.25
6:53 am 06:53 Cloudy 44 6.7 41 5 89 89 N 3 6 29.99 1016 10 16 0.01 0.13
7:35 am 07:35 Cloudy 44 6.7 40 4.4 85 85 Calm 29.98 1015 10 16 0.00 0.00
7:53 am 07:53 Cloudy 45 7.2 40 4.4 82 82 Calm 30.01 1016 10 16 0.00 0.00
8:03 am 08:03 Cloudy 45 7.2 40 4.4 82 82 Calm 29.98 1015 10 16 0.00 0.00
8:27 am 08:27 Cloudy 44 6.7 40 4.4 85 85 WNW 7 11 29.99 1016 10 16 0.00 0.00
8:35 am 08:35 Mostly Cloudy 45 7.2 42 5.6 90 90 NW 5 7 29.99 1015 10 16 0.00 0.00
8:51 am 08:51 Partly Cloudy 45 7 41 5 87 87 NW 6 9 29.99 1016 10 16 0.00 0.00
8:53 am 08:53 Partly Cloudy 45 7.2 41 5 86 86 NW 5 7 30.03 1017 10 16 0.00 0.00
9:32 am 09:32 Mostly Cloudy 47 8.3 41 5 80 80 W 6 9 29.98 1015 10 16 0.00 0.00
9:53 am 09:53 Mostly Cloudy 47 8.3 41 5 80 80 VRB 5 7 30.04 1017 10 16 0.00 0.00
10:14 am 10:14 Partly Cloudy 49 9.4 41 5 74 74 SSW 3 6 29.97 1015 10 16 0.00 0.00
10:31 am 10:31 Mostly Cloudy 50 10 42 5.6 74 74 Calm 29.96 1014 10 16 0.00 0.00
10:42 am 10:42 Mostly Cloudy 50 10 42 5.6 74 74 S 6 9 29.96 1014 10 16 0.00 0.00
10:53 am 10:53 Mostly Cloudy 49 9.4 40 4.4 71 71 SW 3 6 30.03 1017 10 16 0.00 0.00
11:53 am 11:53 Cloudy 54 12.2 39 3.9 57 57 VRB 6 9 30.01 1016 10 16 0.00 0.00
12:53 pm 12:53 Mostly Sunny 57 13.9 38 3.3 49 49 SSE 7 11 30.00 1016 10 16 0.00 0.00
1:53 pm 13:53 Mostly Sunny 57 13.9 37 2.8 47 47 S 10 17 29.98 1015 10 16 0.00 0.00
2:53 pm 14:53 Cloudy with Light Rain 53 11.7 41 5 63 63 SW 8 13 30.01 1016 10 16 0.01 0.13
3:53 pm 15:53 Mostly Cloudy with Nearby Thunderstorms 51 10.6 44 6.7 77 77 N 16 26 30.02 1017 10 16 0.01 0.25
4:07 pm 16:07 Mostly Cloudy 51 10.6 45 7.2 79 79 N 13 20 29.96 1015 10 16 0.00 0.00
4:53 pm 16:53 Cloudy 50 10 43 6.1 77 77 N 13 20 30.02 1017 10 16 0.00 0.00
5:53 pm 17:53 Cloudy with Light Rain 52 11.1 45 7.2 77 77 ENE 13 20 30.03 1017 10 16 0.01 0.25
6:33 pm 18:33 Cloudy 50 10 43 6.1 77 77 ESE 14 22 30.00 1016 10 16 0.01 0.13
6:46 pm 18:46 Cloudy with Light Rain 48 8.9 44 6.7 86 86 ESE 15 24 30.01 1016 8 13 0.01 0.13
6:53 pm 18:53 Cloudy with Light Rain 48 8.9 45 7.2 89 89 ESE 14 22 30.08 1019 9 14 0.01 0.13
7:05 pm 19:05 Cloudy with Heavy Rain 46 7.8 44 6.7 93 93 VRB 5 7 30.05 1018 1 1 0.16 4.06
7:20 pm 19:20 Cloudy with Strong Thunderstorms 44 6.7 42 5.6 93 93 E 14 22 30.05 1018 1 1 0.00 0.00
7:25 pm 19:25 Cloudy with Thunderstorms 45 7.2 43 6.1 93 93 E 10 17 30.05 1017 2 2 0.00 0.00
7:38 pm 19:38 Cloudy with Thunderstorms 44 6.7 43 6.1 96 96 WSW 6 9 30.08 1019 1 2 0.00 0.00
7:53 pm 19:53 Cloudy with Heavy Rain 42 5.6 41 5 96 96 E 13 20 30.11 1020 1 2 0.00 0.00
7:57 pm 19:57 Cloudy with Rain 44 6.7 43 6.1 96 96 E 9 15 30.06 1018 2 3 0.01 0.25
8:02 pm 20:02 Cloudy with Light Rain 45 7.2 43 6.1 93 93 E 7 11 30.07 1018 3 5 0.02 0.51
8:07 pm 20:07 Mostly Cloudy with Light Rain 45 7.2 43 6.1 93 93 NE 5 7 30.08 1018 10 16 0.02 0.51
8:53 pm 20:53 Cloudy 45 7.2 43 6.1 93 93 SE 3 6 30.12 1020 10 16 0.02 0.51
9:53 pm 21:53 Clear 43 6.1 42 5.6 97 97 SE 5 7 30.13 1020 10 16 0.00 0.00
10:53 pm 22:53 Clear 43 6.1 42 5.6 97 97 S 3 6 30.13 1020 10 16 0.00 0.00
11:53 pm 23:53 Clear 39 3.9 39 3.9 100 100 SW 3 6 30.13 1020 10 16 0.00 0.00

Powered by Vaisala Xweather